Regional Weather Roundup
Issued by NWS

Home | Current Version | Previous Version | Graphics & Text | Print | Product List | Glossary On
Versions: 1 2 3 4 5 6 7 8 9 10 11 12 13 14 15 16 17 18 19 20 21 22 23 24 25 26 27 28 29 30 31 32 33 34 35 36 37 38 39 40 41 42 43 44 45 46 47 48 49 50
000
ASUS43 KMKX 241600
RWRWI

WISCONSIN REGIONAL WEATHER ROUNDUP
NATIONAL WEATHER SERVICE MILWAUKEE/SULLIVAN WI
1100 AM CDT SAT JUN 24 2017

NOTE: "FAIR" INDICATES FEW OR NO CLOUDS BELOW 12,000 FEET WITH NO
SIGNIFICANT WEATHER AND/OR OBSTRUCTIONS TO VISIBILITY.

WIZ001-002-006>008-014>016-023>028-241700-
NORTHWEST WISCONSIN

CITY           SKY/WX    TMP DP  RH WIND       PRES   REMARKS
SUPERIOR ARPT  NOT AVBL
ASHLAND        CLOUDY    58  50  75 W9G18     29.91R
HAYWARD        CLOUDY    59  46  62 VRB7      29.93S
SIREN          CLOUDY    61  45  56 W12       29.96S
CUMBERLAND     CLOUDY    55  43  62 NW10G16   29.97R
RICE LAKE      CLOUDY    60  46  61 W9G16     29.98R
CHETEK         PTSUNNY   60  47  61 W10G17    29.96S
LADYSMITH      CLOUDY    61  47  59 W12       29.95S
EAU CLAIRE     NOT AVBL
MENOMONIE      CLOUDY    60  40  48 W16       29.99S
NEW RICHMOND   MOSUNNY   62  41  46 NW17G23   29.99S
OSCEOLA        MOSUNNY   61  41  46 NW10G18   30.02S
$$

WIZ003>005-009-010-017-018-241700-
NORTH CENTRAL WISCONSIN

CITY           SKY/WX    TMP DP  RH WIND       PRES   REMARKS
MANITOWISH WTR CLOUDY    53  53 100 NW8       29.90S
ARBOR VITAE    CLOUDY    57  52  84 NW7       29.90R
WOODRUFF       CLOUDY    57  52  84 NW7       29.90R
RHINELANDER    CLOUDY    57  51  80 W13       29.91R
EAGLE RIVER    CLOUDY    56  49  75 W12       29.88S
LAND O LAKES   CLOUDY    55  52  90 W6        29.90S
PHILLIPS       CLOUDY    55  49  78 W6        29.92R
TOMAHAWK       NOT AVBL
MEDFORD        CLOUDY    58  44  59 W16       29.93S
MERRILL        CLOUDY    57  51  79 W7        29.93S
$$

WIZ029-030-035-036-043>047-241700-
CENTRAL WISCONSIN

CITY           SKY/WX    TMP DP  RH WIND       PRES   REMARKS
WAUSAU         CLOUDY    59  48  67 NW12      29.91S
MOSINEE        CLOUDY    61  48  63 W16       29.94R
MARSHFIELD     MOSUNNY   62  42  47 NW15G24   29.94S
STEVENS POINT  CLOUDY    59  45  59 W12G21    29.93S
WAUPACA        CLOUDY    65  49  56 W12G18    29.92R
WAUTOMA        PTSUNNY   64  45  49 W15G26    29.95R
WISC RAPIDS    PTSUNNY   62  43  49 NW16G26   29.96R
CAMP DOUGLAS   NOT AVBL
$$

WIZ011>013-019>022-031-037>040-048>050-241700-
NORTHEAST WISCONSIN

CITY           SKY/WX    TMP DP  RH WIND       PRES   REMARKS
ANTIGO         CLOUDY    56  51  85 W16       29.91R
SHAWANO        CLOUDY    64  52  67 W12       29.89R
OCONTO         CLOUDY    65  55  71 W13       29.86S
STURGEON BAY     N/A     64  55  72 NW8         N/A
GREEN BAY      MOSUNNY   66  56  70 W16       29.88S
MANITOWOC      NOT AVBL
APPLETON       PTSUNNY   64  46  52 W17G23    29.89R
CLINTONVILLE   CLOUDY    63  50  63 W14       29.90R
OSHKOSH        MOSUNNY   65  48  54 W17G24    29.91R
$$

WIZ032>034-041-042-053>061-241700-
SOUTHWEST WISCONSIN

CITY           SKY/WX    TMP DP  RH WIND       PRES   REMARKS
LA CROSSE      PTSUNNY   68  45  43 NW14G22   30.00R
SPARTA         PTSUNNY   61  51  69 W7        29.99R
VIROQUA        PTSUNNY   62  49  64 NW17      30.00S
BOSCOBEL       PTSUNNY   66  48  52 W12G20    30.01R
PRAIRIE DU CHI MOSUNNY   64  43  46 W16       30.02R
PLATTEVILLE    PTSUNNY   65  49  57 W21       30.02R
$$

WIZ056-057-062-063-064-067-068-241700-
SOUTH CENTRAL WISCONSIN

CITY           SKY/WX    TMP DP  RH WIND       PRES   REMARKS
REEDSBURG      PTSUNNY   64  47  52 NW8       29.97S
BARABOO/DELLS  CLOUDY    64  43  46 NW13G20   29.97R
LONE ROCK      NOT AVBL
MINERAL POINT  PTSUNNY   66  52  59 W10G16    30.01R
MADISON        PTSUNNY   66  47  50 NW9       29.97R
MIDDLETON      PTSUNNY   67  48  50 W12G18    29.98R
WATERTOWN      PTSUNNY   65  50  59 NW10G16   29.95R
MONROE         MOSUNNY   64  43  45 W12G22    29.99R
JANESVILLE     PTSUNNY   70  46  43 W12G17    29.97R
$$

WIZ051-052-058>065-066-070>072-241700-
SOUTHEAST WISCONSIN

CITY           SKY/WX    TMP DP  RH WIND       PRES   REMARKS
MILWAUKEE      MOSUNNY   70  49  47 W18G24    29.93R
WAUKESHA       MOSUNNY   64  48  55 W14G21    29.96R
MILWAUKEE/TIMM MOSUNNY   66  48  52 NW13G21   29.94R
RACINE         MOSUNNY   69  52  54 W14G23    29.96R
KENOSHA        MOSUNNY   68  53  58 W12G22    29.96R
FOND DU LAC    MOSUNNY   67  46  47 NW14G22   29.93R
SHEBOYGAN      MOSUNNY   66  54  65 W14G21    29.91R
WEST BEND      MOSUNNY   64  50  59 W15G24    29.93R
JUNEAU         MOSUNNY   63  48  58 W12G17    29.96R
$$

LSZ147-162-241700-
LAKE SUPERIOR

STATION/POSITION TIME  TEMP    WIND        PRES    WAVE
                       AIR SEA DIR/SP/G            HT/PER
                 (UTC) (F)     (DEG/KT/KT) (MB)    (FT/S)
W MID LAKE BUOY  1450   45 39  260/ 10/ 12 1011.0R   1/ 3
DEVILS ISLAND    1500   53     250/ 15/ 17 1011.8R
SAXON HARBOR     1530   58     250/  6/  9 1011.9S
$$

LMZ867-665-643>646-241700-
LAKE MICHIGAN

STATION/POSITION TIME  TEMP    WIND        PRES    WAVE
                       AIR SEA DIR/SP/G            HT/PER
                 (UTC) (F)     (DEG/KT/KT) (MB)    (FT/S)
CHAMBERS ISLAND  1540   65     270/  2/  6 1010.5R
S GREEN BAY BUOY 1530   61     270/ 10/ 14 1011.0R
N MID LAKE BUOY  1450   58 56  290/  8/  8 1010.7R   1/ 4
NORTHPORT PIER   1540   62     330/  6/ 10 1010.5S
KEWAUNEE LAKESHO 1530   66     290/  8/ 12 1010.9S
SHEBOYGAN LAKESH 1500   64     300/ 14/ 17 1011.6R
PORT WASHINGTON  1540   69     310/  7/ 16 1013.5R
ATWATER BUOY     1409   63 58  280/ 16/ 19 1012.6R
MILWAUKEE LAKESH 1540   66     290/ 13/ 17   N/A
S MID LAKE BUOY  1450   62 61  310/ 14/ 16 1013.0R   3/ 5
KENOSHA   LAKESH 1500   66     290/ 13/ 17 1013.5
$$

TC  - TEMPERATURE IN CELSIUS
VSB - VISIBILITY IN STATUTE MILES
WCI - WIND CHILL INDEX
HX  - HEAT INDEX





USA.gov is the U.S. government's official web portal to all federal, state and local government web resources and services.